Theta_e
314 314 314 314 314 314 315 314 314 314 316 316 318 319 319 320 320 311 306 311 316 322 321 314 308 309 310 307 307 305 295 291 291 292 293 295 294 298 301 297 298 303 300 302 307
316 315 314 314 314 314 314 314 313 314 315 316 317 318 319 320 313 307 311 317 320 321 314 306 304 306 303 304 303 300 295 293 295 294 294 295 294 297 296 298 298 300 303 305 307
317 316 315 314 314 313 314 315 313 314 315 315 316 318 319 317 308 305 314 317 318 316 313 307 307 306 302 303 300 298 295 295 295 297 297 297 296 298 296 295 298 296 298 302 306
319 318 316 314 313 313 313 314 313 313 314 315 316 318 319 313 299 307 316 317 317 314 309 306 305 302 299 297 300 294 297 298 298 298 298 296 299 296 297 296 301 299 298 303 303
319 318 318 316 314 313 312 314 314 313 314 314 316 318 313 304 304 310 317 318 311 310 305 303 301 301 297 297 298 295 296 299 299 299 298 299 296 296 296 298 301 299 301 302 302
319 318 317 316 314 313 313 313 314 313 313 314 316 317 308 299 309 311 311 312 310 308 305 305 302 303 299 298 297 298 298 297 299 299 299 296 296 297 297 300 299 298 298 300 302
319 318 317 317 315 313 313 313 313 313 313 314 315 312 303 302 309 311 313 311 311 309 304 307 306 303 301 296 300 298 294 296 297 298 297 297 293 294 298 300 298 297 297 299 301
319 318 317 316 315 313 313 313 313 313 313 314 315 309 301 309 310 309 312 310 311 310 308 308 308 304 301 301 298 295 294 288 295 297 297 294 289 296 299 298 296 296 296 297 299
319 317 317 316 315 314 312 313 313 313 313 313 307 306 300 307 305 309 311 309 308 308 308 309 309 301 299 294 290 290 286 287 291 296 296 293 289 296 299 299 296 294 294 295 296
318 317 317 317 315 314 313 313 313 309 309 304 302 299 300 299 306 307 311 311 308 304 303 303 301 296 295 292 286 286 285 286 285 292 293 291 290 296 298 297 296 294 294 293 294
318 317 317 316 315 313 310 305 299 298 300 297 298 299 300 303 307 306 309 307 307 303 296 298 293 289 292 294 289 287 287 285 287 294 289 289 291 294 296 296 295 295 292 292 293
319 318 317 317 315 312 307 298 297 299 291 299 299 299 302 304 298 303 308 301 300 294 296 291 287 293 294 293 291 287 285 285 289 292 288 286 285 292 295 294 296 295 291 291 291
318 317 317 316 313 309 304 298 303 303 293 295 298 298 298 301 299 299 304 301 297 294 293 290 291 294 293 290 290 289 287 285 285 289 289 287 285 287 293 295 298 297 295 293 290
316 317 317 315 306 306 301 305 303 304 290 292 291 296 299 301 295 303 305 300 297 293 292 291 293 292 290 290 290 286 290 289 288 285 280 285 277 286 290 291 295 296 293 290 290
314 317 316 313 304 300 300 303 303 305 276 294 291 299 299 296 295 296 302 299 294 293 292 288 289 289 289 289 291 288 291 289 288 285 283 282 277 285 289 287 290 293 292 289 290
312 315 315 304 303 300 301 302 304 284 274 288 291 290 291 294 294 296 297 300 298 293 293 290 294 292 289 291 291 293 290 289 287 285 277 283 280 282 283 287 289 292 290 290 290
311 311 312 305 299 302 303 298 281 279 290 284 286 290 290 289 291 293 291 289 287 282 284 288 289 290 291 288 291 290 285 280 277 276 277 281 278 282 287 290 291 290 289 289 289
310 310 312 307 302 303 301 287 278 284 285 290 289 290 286 289 289 291 289 286 290 290 284 282 279 287 290 288 286 287 286 282 276 278 278 278 276 283 288 293 293 292 290 290 288
309 305 308 300 302 303 294 283 285 286 291 287 288 285 285 287 288 289 288 288 290 292 287 283 280 288 290 290 289 286 281 285 280 274 277 280 282 286 286 289 292 290 290 288 288
302 301 298 301 303 300 289 287 286 292 293 290 285 287 281 284 284 286 287 292 291 293 292 289 280 285 287 289 289 286 287 280 280 272 273 279 279 282 283 285 289 291 289 289 289
298 294 297 302 303 293 285 286 287 292 293 289 288 286 286 283 285 285 287 290 293 292 292 290 286 281 285 283 283 282 281 283 283 281 279 277 279 285 288 288 289 290 293 290 289
293 285 297 301 286 285 286 287 292 289 291 289 290 290 288 285 285 284 285 288 293 293 286 290 285 278 280 285 287 285 285 285 280 279 279 280 279 288 288 289 291 292 294 292 290
285 285 297 298 284 284 285 286 286 286 287 287 287 291 290 286 283 286 287 288 291 290 288 289 282 274 277 281 283 281 285 286 285 283 279 277 281 288 286 288 290 292 293 293 291
285 281 284 288 287 288 284 284 283 288 288 290 288 288 286 284 283 285 286 287 289 290 292 292 286 283 280 281 283 279 283 284 284 278 281 280 283 284 285 286 288 290 293 293 291
285 284 284 281 283 286 288 287 285 282 286 291 285 286 285 282 282 281 284 285 287 290 288 287 278 280 280 280 281 281 281 284 283 285 282 283 284 288 287 286 288 290 292 293 293
284 284 285 286 286 285 288 286 286 283 285 285 287 288 288 285 285 281 284 284 285 287 286 285 276 277 275 279 279 280 281 284 284 284 284 284 284 290 291 289 288 290 291 292 294
289 291 286 285 284 283 285 287 287 290 288 291 290 289 287 288 289 290 290 290 289 285 284 283 277 277 274 274 276 276 278 283 284 286 287 282 289 290 288 289 289 290 292 292 293
Wind_Speed
8 9 8 11 12 13 13 14 15 15 16 17 17 17 16 17 15 5 2 5 7 13 10 7 5 2 2 2 2 2 3 3 3 2 5 6 4 3 3 4 1 3 1 5 9
10 8 9 9 10 12 14 14 15 15 15 16 17 16 16 16 7 3 3 7 8 8 5 4 4 5 3 1 2 3 2 5 7 6 5 6 3 4 1 4 5 3 7 9 8
10 10 8 8 9 11 13 14 15 15 15 15 16 16 15 14 5 4 5 7 7 5 6 5 3 3 3 1 3 3 4 6 5 6 4 5 2 1 4 3 9 6 8 8 6
10 10 10 8 8 8 10 13 14 15 16 15 15 15 16 5 2 3 6 6 5 7 4 3 4 3 4 4 1 4 6 5 5 3 2 1 5 3 6 3 6 5 6 6 7
9 10 10 9 8 8 9 11 13 15 15 16 15 13 7 4 0 4 6 2 4 2 3 5 6 2 4 4 5 8 5 8 7 2 3 4 5 4 6 1 5 3 5 6 6
11 10 10 9 8 8 8 10 12 14 15 15 15 16 4 5 0 5 4 1 4 4 3 4 3 5 7 4 4 7 7 8 4 2 1 4 4 3 4 7 3 1 5 4 6
13 10 10 10 9 7 9 9 12 14 14 15 13 7 4 4 1 4 2 1 2 3 4 4 6 2 5 5 7 9 6 4 5 3 2 2 6 9 4 5 4 3 3 4 5
14 12 10 10 8 8 8 11 12 14 14 13 10 5 5 2 4 1 2 5 5 8 7 3 4 6 5 8 3 3 4 3 6 5 3 1 4 8 9 3 3 3 4 3 4
15 12 10 9 8 8 9 12 13 14 13 10 6 5 2 2 3 3 4 3 5 5 3 2 0 4 4 4 3 2 2 1 4 5 0 6 6 6 7 4 3 4 4 3 4
16 14 11 9 8 8 9 15 11 9 6 5 5 3 3 2 4 3 1 2 1 6 4 4 3 5 4 3 4 4 4 3 3 6 6 6 11 10 8 5 3 1 4 1 4
15 15 14 11 9 5 7 5 1 2 5 5 1 1 3 4 2 3 1 3 4 5 5 2 3 6 9 7 4 3 2 3 1 4 3 6 10 9 2 7 6 5 5 2 2
18 16 16 14 9 4 4 2 4 1 7 8 3 2 1 2 3 5 3 4 5 5 3 3 4 5 8 7 5 3 3 2 3 3 2 5 12 13 9 6 5 5 4 3 3
15 17 16 14 12 4 4 3 2 3 5 4 5 4 4 5 2 9 6 4 6 6 7 3 4 3 4 5 6 5 3 4 0 3 6 6 8 1 5 5 7 6 4 5 4
17 18 16 16 6 5 4 6 6 3 4 6 7 5 6 3 3 3 1 1 2 6 5 1 7 5 4 5 0 5 2 1 2 1 2 3 6 4 6 6 9 8 8 7 5
16 17 18 21 9 5 3 7 8 4 1 4 5 1 5 6 9 2 1 2 6 4 2 2 7 5 5 3 2 3 1 1 1 2 4 4 1 6 7 6 9 9 8 8 6
16 16 23 5 3 2 2 1 4 5 12 3 5 6 6 3 3 4 4 1 4 5 5 4 4 2 3 4 2 6 3 3 2 2 2 5 4 6 7 9 6 8 9 9 8
14 21 22 9 7 9 5 6 6 7 3 5 5 8 8 6 6 6 9 8 8 7 4 4 3 3 3 6 2 3 2 1 4 3 6 2 0 10 4 6 8 10 10 10 9
14 19 21 7 18 15 6 6 6 6 5 1 4 5 6 8 5 6 11 8 9 4 5 7 3 10 7 2 6 7 1 4 6 4 3 2 8 8 4 8 10 10 11 10 8
13 8 6 10 19 11 11 8 10 8 8 11 7 4 5 3 3 6 8 6 11 12 7 7 2 4 3 3 2 5 4 1 3 2 3 6 6 3 4 6 6 9 9 10 9
3 6 6 20 19 12 4 11 5 5 7 5 8 7 9 7 6 7 11 7 6 16 3 5 6 1 2 2 0 2 2 4 2 2 5 3 5 7 8 10 9 10 10 9 9
4 6 7 17 11 7 10 8 5 8 3 8 6 6 5 7 7 7 7 4 10 14 9 3 7 1 4 8 7 4 3 4 0 4 5 2 8 2 10 16 16 10 10 10 11
3 5 11 16 4 5 11 9 7 7 2 2 4 4 7 8 7 6 8 2 3 11 10 3 7 5 6 2 4 4 5 7 6 5 3 1 9 3 4 10 10 10 9 10 11
4 1 9 13 12 11 5 4 6 7 8 7 5 5 4 7 5 8 6 4 6 6 11 8 3 5 4 3 1 6 6 4 4 2 7 7 7 1 3 5 7 11 11 10 11
3 4 3 5 3 17 15 9 8 4 8 7 5 6 4 2 1 6 9 1 5 4 4 2 5 7 8 4 6 8 10 10 7 4 5 7 3 6 7 8 7 8 10 9 11
3 3 2 9 12 11 18 15 14 9 3 9 3 8 10 6 3 5 2 4 3 0 2 3 6 2 3 2 1 4 9 20 17 13 9 6 12 7 12 13 11 9 10 11 10
2 3 3 4 9 11 16 15 25 9 17 15 12 22 13 10 11 10 9 5 5 3 4 1 1 3 3 1 1 6 7 16 22 15 11 6 8 8 1 8 10 11 11 14 14
3 3 3 5 10 11 13 21 28 25 10 18 22 13 16 15 7 7 4 6 10 11 6 5 6 4 5 2 2 12 14 19 13 14 23 14 18 7 6 9 13 13 16 16 15
Wind_Direction
291 300 311 319 328 327 337 338 339 340 339 337 337 336 335 333 315 236 11 345 314 322 315 273 257 210 214 110 351 274 294 180 90 110 98 114 200 116 80 287 206 98 277 341 353
274 277 298 308 319 323 326 336 334 335 336 336 335 335 332 333 292 279 64 331 319 317 271 243 160 213 83 75 16 10 301 54 13 27 128 145 277 102 247 220 227 71 12 6 339
264 269 272 295 309 316 321 330 330 330 332 334 334 332 327 322 271 82 5 337 321 292 259 304 321 263 107 360 6 32 2 101 50 31 48 112 274 142 298 286 52 355 338 337 343
247 257 261 271 280 301 313 321 325 327 328 329 330 330 322 277 290 62 350 318 313 298 270 194 233 218 157 151 100 103 37 50 109 23 351 149 14 264 220 329 69 341 345 337 356
243 245 256 261 275 298 307 316 321 323 324 324 326 326 327 238 306 26 339 353 245 226 254 224 232 151 148 121 139 95 126 89 86 115 15 349 263 287 297 146 42 356 5 9 351
256 240 247 255 260 289 307 312 317 319 320 321 322 317 241 252 328 12 345 321 7 239 156 265 308 58 74 47 353 100 122 119 152 125 30 310 282 71 174 90 305 335 43 18 24
231 245 251 246 253 274 302 309 312 313 313 314 316 301 260 269 28 341 29 357 310 330 142 15 23 310 119 110 99 124 111 151 176 175 270 308 253 227 215 132 265 54 36 38 30
221 228 231 252 249 266 291 305 305 305 303 302 302 286 273 96 350 204 269 113 68 65 80 113 101 68 52 120 106 191 168 189 133 172 170 249 277 189 118 128 320 57 55 43 22
215 213 222 233 245 258 286 294 293 295 291 286 268 230 240 174 190 107 323 134 128 116 90 144 49 102 152 157 113 196 247 165 166 196 297 198 277 122 130 176 261 74 53 21 6
211 207 211 228 247 268 292 284 283 302 246 245 261 287 150 154 108 125 109 279 231 145 151 206 163 149 179 176 202 185 225 208 209 180 221 239 257 275 178 188 234 57 92 24 3
218 207 201 209 223 257 306 308 282 216 247 225 144 62 132 87 215 181 121 183 219 235 192 178 214 201 188 193 102 305 50 148 94 120 289 245 267 269 257 169 196 214 140 171 40
235 207 201 195 184 169 282 316 66 276 303 204 223 237 352 313 147 163 194 190 209 200 109 138 230 76 69 111 114 100 150 246 331 148 210 343 277 250 243 214 149 143 196 120 58
237 209 196 181 149 148 246 162 78 306 257 189 201 192 185 166 228 167 189 196 207 220 198 199 74 122 131 152 182 192 227 195 222 201 230 297 287 181 201 129 142 188 193 174 124
312 215 183 149 128 135 231 199 117 72 314 222 212 204 150 213 210 59 246 261 182 212 181 12 132 170 175 175 83 205 76 5 157 301 277 181 282 237 172 177 201 192 180 161 148
312 219 177 154 135 169 186 127 145 65 226 97 135 11 176 177 131 175 3 175 167 136 134 181 155 181 190 108 82 82 202 5 343 271 12 216 86 254 104 215 217 187 169 138 147
308 298 174 121 64 151 87 355 83 83 241 207 124 153 157 191 125 126 154 356 29 111 46 67 345 340 55 89 22 135 142 190 263 271 347 201 162 257 188 201 155 158 148 147 162
288 318 176 155 174 174 109 38 98 206 316 185 185 161 199 163 152 189 170 171 153 114 172 135 179 98 185 98 74 216 183 21 356 5 226 49 134 249 146 147 149 155 159 157 160
277 297 196 184 138 148 130 112 202 196 206 220 123 157 177 143 203 207 162 189 240 220 122 152 251 173 184 224 176 189 123 168 201 201 237 27 232 254 132 100 129 149 155 145 158
308 288 197 154 152 154 141 223 190 189 169 153 140 133 204 155 144 177 197 204 201 196 164 168 131 21 68 15 2 175 189 134 97 59 43 208 254 339 116 130 151 145 145 152 165
273 288 171 160 158 161 225 223 224 234 131 167 168 165 179 168 167 185 181 213 208 188 232 185 103 332 98 306 224 356 358 107 314 181 247 271 271 236 205 200 197 181 173 178 162
269 245 145 158 142 185 214 201 185 239 230 165 181 141 172 173 176 199 210 299 192 176 166 135 114 90 115 213 180 164 187 203 81 182 202 264 261 271 208 185 190 185 176 173 156
280 250 163 156 194 157 202 169 175 163 47 144 144 142 168 157 178 228 222 259 263 154 171 204 104 160 199 55 27 318 221 172 137 221 246 136 272 352 37 157 160 170 170 164 156
201 256 186 186 194 195 130 143 194 138 158 168 182 138 135 165 181 201 204 322 333 140 164 190 178 98 355 3 354 225 201 235 110 71 209 145 260 352 46 95 149 156 163 161 156
175 209 223 245 91 195 171 167 177 248 165 135 150 86 112 225 6 214 166 344 11 29 308 150 167 170 183 170 131 191 198 190 163 147 174 223 294 213 203 194 192 166 157 162 164
224 213 213 210 207 214 185 174 173 162 250 136 30 196 165 179 162 231 106 116 14 252 302 142 187 147 115 86 305 218 194 188 197 203 175 204 218 228 199 195 193 177 158 161 181
232 201 200 254 219 204 188 190 188 164 155 194 208 190 189 170 189 183 153 190 153 169 202 187 154 81 300 12 53 264 231 198 213 221 275 237 269 235 275 155 169 179 180 183 188
160 291 324 231 188 197 201 188 197 186 214 189 193 167 199 205 88 71 85 98 143 155 174 161 134 116 256 319 4 271 195 198 210 213 211 206 222 164 198 192 186 181 185 192 188